Back to catalog

GLOBALSTAR M066

AliveCommunicationsLEO
NORAD 32265·PAYLOAD·🇺🇸 United States

Launched Oct 20, 2007 from Baikonur Cosmodrome

Loading…

Next Passes (next 24 hours)

TLE

FreshSource: Space-Track

Epoch: Sep 14, 2026, 03:08 UTC

1 32265U 07048C   26257.13092222 -.00000129  00000-0 -28841-3 0  9990
2 32265  51.9579 162.5803 0004129 226.7706 280.6827 12.30390570871174

Track GLOBALSTAR M066 in real time with AllMySat

Download on the App Store